This is the latest recevied weather packets stored in our database for station/object KC4GS-13. If no packets are shown the sender has not sent any weather packets the latest 10 day(s).
| Time | Temp. | Humidity | Pressure | Rain* | Wind** | Luminosity | Snow |
|---|---|---|---|---|---|---|---|
| 1788052351 | 26.11° C | 85% | 1021.7 hPa | 0 mm | - | 0 W/m² | - |
| 1788052046 | 26.11° C | 85% | 1021.5 hPa | 0 mm | - | 0 W/m² | - |
| 1788051740 | 26.11° C | 85% | 1021.7 hPa | 0 mm | - | 0 W/m² | - |
| 1788051440 | 26.11° C | 85% | 1021.4 hPa | 0 mm | - | 0 W/m² | - |
| 1788051138 | 26.11° C | 85% | 1021.3 hPa | 0 mm | - | 0 W/m² | - |
| 1788050833 | 26.11° C | 84% | 1021.4 hPa | 0 mm | - | 0 W/m² | - |
| 1788050528 | 26.11° C | 84% | 1021.1 hPa | 0 mm | - | 0 W/m² | - |
| 1788050223 | 26.67° C | 84% | 1021 hPa | 0 mm | - | 0 W/m² | - |
| 1788049917 | 26.67° C | 83% | 1020.9 hPa | 0 mm | - | 0 W/m² | - |
| 1788049614 | 26.67° C | 83% | 1020.9 hPa | 0 mm | - | 0 W/m² | - |
| 1788049311 | 26.67° C | 83% | 1020.6 hPa | 0 mm | - | 0 W/m² | - |
| 1788049005 | 26.67° C | 83% | 1020.8 hPa | 0 mm | - | 0 W/m² | - |
| 1788048701 | 27.22° C | 82% | 1020.7 hPa | 0 mm | - | 0 W/m² | - |
| 1788048399 | 27.22° C | 82% | 1020.4 hPa | 0 mm | - | 0 W/m² | - |
| 1788048098 | 27.22° C | 81% | 1020.6 hPa | 0 mm | - | 0 W/m² | - |
| 1788047795 | 27.22° C | 81% | 1020.4 hPa | 0 mm | - | 4 W/m² | - |
| 1788047490 | 27.78° C | 80% | 1020.4 hPa | 0 mm | - | 3 W/m² | - |
| 1788047186 | 27.78° C | 80% | 1020.6 hPa | 0 mm | - | 6 W/m² | - |
| 1788046880 | 27.78° C | 79% | 1020.6 hPa | 0 mm | - | 10 W/m² | - |
| 1788046579 | 27.78° C | 79% | 1020.7 hPa | 0 mm | - | 12 W/m² | - |
| 1788046274 | 28.33° C | 78% | 1020.5 hPa | 0 mm | - | 16 W/m² | - |
| 1788045972 | 28.33° C | 78% | 1020.6 hPa | 0 mm | - | 18 W/m² | - |
| 1788045668 | 28.33° C | 78% | 1020.8 hPa | 0 mm | - | 18 W/m² | - |
| 1788045361 | 28.33° C | 78% | 1020.8 hPa | 0 mm | - | 18 W/m² | - |
| 1788045057 | 28.89° C | 77% | 1020.6 hPa | 0 mm | - | 31 W/m² | - |
* Rain latest hour (hover to see other rain measurements)
** Current wind speed in m/s (hover to see current wind gust speed)